UAE318 OMDB-RJAA

Flight info

Callsign UAE318
Flight time N/A
Altitude 33000
Route ANVIX DCT UMAMI DCT PASOV DCT GERAR Z890 MCT Q250 KIPOL N881 RASKI L639 BPL A791 CEA/N0500F350 B465 AKSAG B214 LADON/K0924F350 B214 BQ W21 NOB R474 TEBAK/K0924S1070 R474 GYA A599 LEKUV/K0909S1130 A599 ELNEX G204 MULOV V73 SUPAR B221 NINAS G327 LAMEN/N0488F370 A593 SADLI Y590 BEDAR Y591 FUE Y23 OOITA Y40 MYE V40 KTE Y33 KOHWA Y55 GAKKI Y295 KOSKA
Aircraft B77W/H-SDE1E2E3FGHIJ2J3J4J5M1RWXY/LB1D1

Departure

Time N/A
Airport Dubai International Airport (OMDB)

Arrival

Time 2026-05-07 17:51
Airport Narita International Airport (RJAA)
Time Latitude Longitude Altitude Speed Heading
2026-05-07 16:36 32.81913 129.56876 36962 ft 544 kts 76°
2026-05-07 16:36 32.82783 129.61250 36959 ft 543 kts 76°
2026-05-07 16:37 32.84519 129.69999 36962 ft 543 kts 76°
2026-05-07 16:37 32.86234 129.78745 36953 ft 542 kts 76°
2026-05-07 16:38 32.87929 129.87466 36965 ft 541 kts 77°
2026-05-07 16:38 32.89620 129.96196 36959 ft 540 kts 77°
2026-05-07 16:39 32.91293 130.04851 36955 ft 540 kts 77°
2026-05-07 16:39 32.92967 130.13556 36946 ft 540 kts 77°
2026-05-07 16:40 32.94527 130.21687 36941 ft 539 kts 77°
2026-05-07 16:40 32.96190 130.30390 36945 ft 539 kts 77°
2026-05-07 16:41 32.97848 130.39101 36946 ft 539 kts 77°
2026-05-07 16:41 32.99499 130.47820 36946 ft 539 kts 77°
2026-05-07 16:42 33.01141 130.56521 36942 ft 539 kts 78°
2026-05-07 16:42 33.02780 130.65241 36963 ft 539 kts 78°
2026-05-07 16:43 33.04409 130.73949 36960 ft 538 kts 78°
2026-05-07 16:43 33.06033 130.82661 36969 ft 538 kts 78°
2026-05-07 16:44 33.07541 130.90780 36964 ft 538 kts 78°
2026-05-07 16:44 33.09154 130.99496 36961 ft 538 kts 78°
2026-05-07 16:45 33.10656 131.07647 36958 ft 537 kts 78°
2026-05-07 16:45 33.12252 131.16360 36957 ft 539 kts 79°
2026-05-07 16:46 33.13851 131.25110 36947 ft 539 kts 79°
2026-05-07 16:46 33.15432 131.33795 36937 ft 540 kts 79°
2026-05-07 16:47 33.16922 131.42022 36928 ft 540 kts 79°
2026-05-07 16:47 33.18503 131.50783 36934 ft 540 kts 79°
2026-05-07 16:48 33.20005 131.59137 36924 ft 540 kts 79°
2026-05-07 16:48 33.21874 131.67632 36918 ft 541 kts 69°
2026-05-07 16:49 33.25091 131.75669 36916 ft 539 kts 57°
2026-05-07 16:49 33.29395 131.83043 36918 ft 537 kts 52°
2026-05-07 16:50 33.33762 131.90214 36916 ft 537 kts 52°
2026-05-07 16:50 33.37809 131.97012 36919 ft 537 kts 53°
2026-05-07 16:51 33.42101 132.04319 36911 ft 537 kts 53°
2026-05-07 16:51 33.46406 132.11648 36920 ft 537 kts 53°
2026-05-07 16:52 33.50870 132.18799 36917 ft 536 kts 50°
2026-05-07 16:52 33.55454 132.25832 36912 ft 536 kts 50°
2026-05-07 16:53 33.60021 132.32918 36921 ft 537 kts 50°
2026-05-07 16:53 33.64548 132.40033 36918 ft 537 kts 51°
2026-05-07 16:54 33.69082 132.47187 36918 ft 537 kts 51°
2026-05-07 16:54 33.73605 132.54326 36917 ft 537 kts 51°
2026-05-07 16:55 33.78129 132.61479 36914 ft 537 kts 51°
2026-05-07 16:55 33.82297 132.68966 36917 ft 539 kts 60°
2026-05-07 16:56 33.85354 132.77189 36912 ft 540 kts 71°
2026-05-07 16:56 33.88666 132.89502 36918 ft 540 kts 72°
2026-05-07 16:57 33.90993 132.98095 36911 ft 539 kts 71°
2026-05-07 16:57 33.93356 133.06665 36922 ft 538 kts 71°
2026-05-07 16:58 33.95164 133.13230 36920 ft 538 kts 71°
2026-05-07 16:58 33.97513 133.21805 36919 ft 538 kts 71°
2026-05-07 16:59 33.99688 133.29814 36916 ft 537 kts 71°
2026-05-07 16:59 34.01998 133.38371 36911 ft 537 kts 71°
2026-05-07 17:00 34.04312 133.46943 36912 ft 537 kts 71°
2026-05-07 17:00 34.06846 133.55412 36911 ft 536 kts 69°
2026-05-07 17:01 34.09486 133.63832 36910 ft 536 kts 69°
2026-05-07 17:01 34.12074 133.72273 36914 ft 536 kts 69°
2026-05-07 17:02 34.14625 133.80722 36915 ft 535 kts 69°
2026-05-07 17:02 34.17159 133.89112 36914 ft 534 kts 69°
2026-05-07 17:03 34.19735 133.97510 36908 ft 534 kts 69°
2026-05-07 17:03 34.22065 134.06054 36910 ft 533 kts 75°
2026-05-07 17:04 34.23803 134.14765 36917 ft 533 kts 77°
2026-05-07 17:04 34.25501 134.23550 36909 ft 533 kts 76°
2026-05-07 17:05 34.27222 134.32249 36909 ft 532 kts 76°
2026-05-07 17:05 34.28966 134.40970 36904 ft 534 kts 76°
2026-05-07 17:06 34.30712 134.49730 36916 ft 544 kts 76°
2026-05-07 17:06 34.32487 134.58691 36913 ft 551 kts 76°
2026-05-07 17:07 34.34266 134.67722 36901 ft 554 kts 76°
2026-05-07 17:07 34.36051 134.76813 36898 ft 555 kts 76°
2026-05-07 17:08 34.37833 134.85923 36889 ft 554 kts 76°
2026-05-07 17:08 34.39471 134.95038 36886 ft 552 kts 79°
2026-05-07 17:09 34.40804 135.03511 36887 ft 550 kts 79°
2026-05-07 17:09 34.42232 135.12612 36885 ft 549 kts 79°
2026-05-07 17:10 34.43690 135.21682 36886 ft 548 kts 79°
2026-05-07 17:10 34.45156 135.30760 36886 ft 547 kts 79°
2026-05-07 17:11 34.46604 135.39789 36889 ft 547 kts 79°
2026-05-07 17:11 34.48049 135.48858 36892 ft 547 kts 79°
2026-05-07 17:12 34.49474 135.57858 36907 ft 547 kts 79°
2026-05-07 17:12 34.50911 135.66964 36912 ft 547 kts 79°
2026-05-07 17:13 34.52327 135.76015 36904 ft 546 kts 79°
2026-05-07 17:13 34.53700 135.84867 36911 ft 546 kts 79°
2026-05-07 17:14 34.55103 135.93950 36916 ft 545 kts 79°
2026-05-07 17:14 34.56486 136.02944 36915 ft 544 kts 79°
2026-05-07 17:15 34.57869 136.11983 36907 ft 544 kts 79°
2026-05-07 17:15 34.59243 136.20994 36916 ft 543 kts 79°
2026-05-07 17:16 34.60626 136.30024 36899 ft 543 kts 79°
2026-05-07 17:16 34.62002 136.39022 36896 ft 543 kts 79°
2026-05-07 17:17 34.63374 136.48056 36892 ft 542 kts 79°
2026-05-07 17:17 34.64725 136.57003 36894 ft 541 kts 79°
2026-05-07 17:18 34.66082 136.66045 36888 ft 540 kts 79°
2026-05-07 17:18 34.67415 136.74966 36887 ft 540 kts 79°
2026-05-07 17:19 34.68750 136.83949 36889 ft 540 kts 80°
2026-05-07 17:19 34.70075 136.92907 36888 ft 540 kts 80°
2026-05-07 17:20 34.70991 137.01963 36898 ft 539 kts 86°
2026-05-07 17:20 34.71497 137.11058 36891 ft 539 kts 87°
2026-05-07 17:21 34.71998 137.20169 36897 ft 540 kts 87°
2026-05-07 17:21 34.72535 137.29264 36899 ft 540 kts 86°
2026-05-07 17:22 34.73081 137.38367 36902 ft 540 kts 87°
2026-05-07 17:22 34.73618 137.47479 36904 ft 540 kts 87°
2026-05-07 17:23 34.74140 137.56522 36899 ft 540 kts 87°
2026-05-07 17:23 34.74664 137.65692 36904 ft 540 kts 87°
2026-05-07 17:24 34.75317 137.74746 36902 ft 540 kts 84°
2026-05-07 17:24 34.76273 137.83824 36912 ft 540 kts 84°
2026-05-07 17:25 34.77205 137.92879 36911 ft 540 kts 84°
2026-05-07 17:25 34.78069 138.01934 36911 ft 540 kts 85°
2026-05-07 17:26 34.78921 138.11003 36911 ft 540 kts 85°
2026-05-07 17:26 34.80201 138.20047 36911 ft 541 kts 76°
2026-05-07 17:27 34.82642 138.28655 36917 ft 542 kts 68°
2026-05-07 17:27 34.85526 138.37139 36911 ft 542 kts 68°
2026-05-07 17:28 34.88378 138.45633 36912 ft 542 kts 68°
2026-05-07 17:28 34.91184 138.54178 36911 ft 543 kts 69°
2026-05-07 17:29 34.93791 138.62180 36912 ft 543 kts 69°
2026-05-07 17:29 34.96578 138.70742 36913 ft 544 kts 69°
2026-05-07 17:30 34.98895 138.77870 36916 ft 545 kts 69°
2026-05-07 17:30 35.02110 138.87771 36916 ft 546 kts 69°
2026-05-07 17:31 35.04971 138.96363 36908 ft 547 kts 68°
2026-05-07 17:31 35.07847 139.04940 36896 ft 548 kts 69°
2026-05-07 17:32 35.10717 139.13559 36892 ft 548 kts 69°
2026-05-07 17:32 35.12925 139.20228 36889 ft 548 kts 69°
2026-05-07 17:33 35.16230 139.30241 36883 ft 547 kts 69°
2026-05-07 17:33 35.19040 139.38778 36877 ft 546 kts 69°
2026-05-07 17:34 35.21406 139.45983 36878 ft 545 kts 69°
2026-05-07 17:34 35.24431 139.54480 36868 ft 545 kts 60°
2026-05-07 17:35 35.26734 139.58575 36883 ft 545 kts 50°
2026-05-07 17:35 35.32201 139.64962 36866 ft 542 kts 35°
2026-05-07 17:36 35.38309 139.70236 36795 ft 539 kts 33°
2026-05-07 17:36 35.41427 139.72867 36454 ft 537 kts 33°
2026-05-07 17:36 35.44459 139.75476 35901 ft 541 kts 34°
2026-05-07 17:37 35.47494 139.78185 35434 ft 541 kts 34°
2026-05-07 17:37 35.50517 139.80937 35166 ft 538 kts 35°
2026-05-07 17:37 35.53510 139.83675 34925 ft 534 kts 35°
2026-05-07 17:37 35.56488 139.86395 34634 ft 531 kts 34°
2026-05-07 17:38 35.59450 139.89090 34211 ft 530 kts 34°
2026-05-07 17:38 35.62396 139.91762 33345 ft 518 kts 34°
2026-05-07 17:38 35.65237 139.94338 32424 ft 500 kts 34°
2026-05-07 17:38 35.67996 139.96838 31541 ft 483 kts 34°
2026-05-07 17:39 35.70670 139.99263 30689 ft 469 kts 34°
2026-05-07 17:39 35.73258 140.01611 29867 ft 456 kts 34°
2026-05-07 17:39 35.75757 140.03880 28918 ft 445 kts 34°
2026-05-07 17:39 35.78214 140.06113 27997 ft 435 kts 34°
2026-05-07 17:40 35.80615 140.08298 27106 ft 425 kts 34°
2026-05-07 17:40 35.82977 140.10449 26242 ft 416 kts 34°
2026-05-07 17:40 35.85282 140.12549 25413 ft 409 kts 33°
2026-05-07 17:40 35.87547 140.14614 24602 ft 402 kts 33°
2026-05-07 17:41 35.89771 140.16649 23816 ft 395 kts 34°
2026-05-07 17:41 35.91952 140.18669 22976 ft 389 kts 34°
2026-05-07 17:41 35.94103 140.20672 22079 ft 383 kts 34°
2026-05-07 17:41 35.96211 140.22636 21209 ft 378 kts 34°
2026-05-07 17:42 35.98281 140.24559 20370 ft 373 kts 34°
2026-05-07 17:42 36.00377 140.26481 19440 ft 370 kts 31°
2026-05-07 17:42 36.02661 140.27830 18504 ft 361 kts 10°
2026-05-07 17:42 36.05093 140.28138 17541 ft 348 kts 349°
2026-05-07 17:43 36.07378 140.27385 16539 ft 333 kts 327°
2026-05-07 17:43 36.09170 140.25712 15562 ft 317 kts 304°
2026-05-07 17:43 36.10222 140.23405 14641 ft 303 kts 282°
2026-05-07 17:43 36.10392 140.20877 13733 ft 293 kts 258°
2026-05-07 17:44 36.09678 140.18556 12734 ft 289 kts 235°
2026-05-07 17:44 36.08229 140.16870 11733 ft 290 kts 212°
2026-05-07 17:44 36.06305 140.16121 10778 ft 295 kts 189°
2026-05-07 17:44 36.04281 140.16339 9861 ft 301 kts 168°
2026-05-07 17:45 36.02300 140.17283 8896 ft 302 kts 161°
2026-05-07 17:45 36.00428 140.18408 8009 ft 299 kts 152°
2026-05-07 17:45 35.98824 140.20059 7148 ft 300 kts 139°
2026-05-07 17:45 35.97384 140.21911 6329 ft 296 kts 137°
2026-05-07 17:46 35.95836 140.23517 5453 ft 287 kts 150°
2026-05-07 17:46 35.94186 140.24732 4608 ft 271 kts 154°
2026-05-07 17:46 35.92565 140.25855 3747 ft 257 kts 153°
2026-05-07 17:46 35.91280 140.26778 3365 ft 234 kts 152°
2026-05-07 17:47 35.89964 140.27739 3178 ft 206 kts 153°
2026-05-07 17:47 35.88785 140.28595 3056 ft 195 kts 153°
2026-05-07 17:47 35.87618 140.29441 3017 ft 196 kts 153°
2026-05-07 17:47 35.86440 140.30296 2855 ft 198 kts 153°
2026-05-07 17:48 35.85255 140.31157 2412 ft 199 kts 153°
2026-05-07 17:48 35.84032 140.32047 1764 ft 203 kts 154°
2026-05-07 17:48 35.82844 140.32909 1355 ft 193 kts 154°
2026-05-07 17:48 35.81875 140.33615 1136 ft 180 kts 154°
2026-05-07 17:49 35.80835 140.34366 880 ft 166 kts 153°
2026-05-07 17:49 35.79876 140.35072 677 ft 156 kts 152°
2026-05-07 17:49 35.78970 140.35730 461 ft 145 kts 152°
2026-05-07 17:49 35.78141 140.36328 277 ft 135 kts 150°
2026-05-07 17:50 35.77364 140.36884 164 ft 124 kts 151°
2026-05-07 17:50 35.76698 140.37365 150 ft 93 kts 149°
2026-05-07 17:50 35.76236 140.37699 148 ft 73 kts 149°
2026-05-07 17:50 35.75829 140.37992 151 ft 62 kts 150°
2026-05-07 17:51 35.75637 140.38135 152 ft 23 kts 143°
2026-05-07 17:51 35.75527 140.38285 150 ft 12 kts 121°
2026-05-07 17:51 35.75482 140.38376 150 ft 12 kts 121°
2026-05-07 17:51 35.75472 140.38479 149 ft 13 kts 77°
2026-05-07 17:52 35.75521 140.38568 149 ft 13 kts 30°
2026-05-07 17:52 35.75604 140.38541 149 ft 13 kts 329°
2026-05-07 17:52 35.75685 140.38480 149 ft 14 kts 329°
2026-05-07 17:52 35.75760 140.38485 149 ft 12 kts 56°
2026-05-07 17:53 35.75724 140.38570 149 ft 12 kts 150°
2026-05-07 17:53 35.75684 140.38656 149 ft 13 kts 83°
2026-05-07 17:53 35.75729 140.38751 149 ft 13 kts 52°
2026-05-07 17:53 35.75806 140.38813 149 ft 14 kts 24°
2026-05-07 17:54 35.75893 140.38861 149 ft 14 kts 24°
2026-05-07 17:54 35.75979 140.38909 149 ft 14 kts 24°
2026-05-07 17:54 35.76066 140.38956 149 ft 14 kts 24°
2026-05-07 17:54 35.76152 140.39004 149 ft 14 kts 24°
2026-05-07 17:55 35.76239 140.39052 149 ft 14 kts 24°
2026-05-07 17:55 35.76331 140.39103 149 ft 15 kts 24°
2026-05-07 17:55 35.76428 140.39157 149 ft 16 kts 24°
2026-05-07 17:55 35.76524 140.39210 149 ft 16 kts 24°
2026-05-07 17:56 35.76628 140.39268 149 ft 17 kts 24°
2026-05-07 17:56 35.76734 140.39326 149 ft 17 kts 25°
2026-05-07 17:56 35.76839 140.39385 149 ft 17 kts 24°
2026-05-07 17:56 35.76938 140.39404 149 ft 12 kts 326°
2026-05-07 17:57 35.77002 140.39353 149 ft 6 kts 328°
2026-05-07 17:57 35.77019 140.39328 149 ft 6 kts 293°
2026-05-07 17:57 35.77014 140.39250 149 ft 7 kts 264°
2026-05-07 17:57 35.77011 140.39226 149 ft 2 kts 264°
2026-05-07 17:58 35.77010 140.39212 149 ft 0 kts 264°